Date String (YYYY-MM-DD hh:mm:ss) UTC,Instrument flags,Ambient pressure (hPa),Sample flow (lpm),Bypass flow (lpm),Sample temperature (°C),Ambient temperature (°C),ASC tube jacket temperature (°C),LED temperature (°C),Box temperature (°C),Sample RH (%),Span deviation,Mass concentration (μg/m³),Mass concentration (μg/m³),Mass concentration (μg/m³)
DateTimeUTC,F1_M11,P_M11,Q1_M11,Q2_M11,T1_M11,T2_M11,T3_M11,T4_M11,T5_M11,U1_M11,ZSPAN_M11,X2_M11,X0_M11,X1_M11
2022-11-27 09:00:00,,0823.0,5.02,0.00,25.6,24.1,00.0,34.6,27.5,17.5,0000.0,0002.63,0004.84,0002.29
2022-11-27 09:01:00,,0823.0,5.00,0.00,25.6,24.1,00.0,34.6,27.5,17.5,0000.0,0002.62,0005.22,0002.30
2022-11-27 09:02:00,,0823.0,5.00,0.00,25.6,24.1,00.0,34.6,27.5,17.5,0000.0,0002.62,0005.13,0002.30
2022-11-27 09:03:00,,0822.9,5.00,0.00,25.6,24.1,00.0,34.6,27.5,17.5,0000.0,0002.61,0004.94,0002.29
2022-11-27 09:04:00,,0822.9,5.00,0.00,25.6,24.1,00.0,34.6,27.5,17.5,0000.0,0002.62,0004.97,0002.28
2022-11-27 09:05:00,,0823.0,5.00,0.00,25.6,24.1,00.0,34.6,27.5,17.5,0000.0,0002.61,0004.94,0002.27
2022-11-27 09:06:00,,0822.9,5.00,0.00,25.6,24.1,00.0,34.6,27.5,17.5,0000.0,0002.59,0004.80,0002.26
2022-11-27 09:07:00,,0823.0,4.99,0.00,25.6,24.1,00.0,34.6,27.5,17.5,0000.0,0002.59,0004.81,0002.26
2022-11-27 09:08:00,,0822.9,5.01,0.00,25.6,24.1,00.0,34.6,27.5,17.5,0000.0,0002.61,0005.33,0002.25
2022-11-27 09:09:00,,0823.0,5.00,0.00,25.6,24.1,00.0,34.6,27.5,17.5,0000.0,0002.58,0005.23,0002.24
2022-11-27 09:10:00,,0822.9,5.00,0.00,25.6,24.1,00.0,34.6,27.5,17.5,0000.0,0002.57,0005.19,0002.24
2022-11-27 09:11:00,,0823.0,4.99,0.00,25.6,24.1,00.0,34.6,27.5,17.5,0000.0,0002.59,0005.23,0002.23
2022-11-27 09:12:00,,0823.0,4.99,0.00,25.6,24.1,00.0,34.6,27.4,17.6,0000.0,0002.60,0004.37,0002.22
2022-11-27 09:13:00,,0823.0,5.02,0.00,25.6,24.1,00.0,34.5,27.4,17.6,0000.0,0002.59,0004.35,0002.21
2022-11-27 09:14:00,,0823.0,5.00,0.00,25.6,24.0,00.0,34.5,27.4,17.6,0000.0,0002.57,0004.26,0002.21
2022-11-27 09:15:00,,0823.0,5.00,0.00,25.6,24.0,00.0,34.5,27.5,17.6,0000.0,0002.53,0004.15,0002.22
2022-11-27 09:16:00,,0823.0,4.99,0.00,25.5,24.0,00.0,34.5,27.5,17.6,0000.0,0002.49,0004.04,0002.22
2022-11-27 09:17:00,,0822.9,5.00,0.00,25.5,24.0,00.0,34.5,27.5,17.6,0000.0,0002.51,0004.06,0002.23
2022-11-27 09:18:00,,0822.9,5.02,0.00,25.5,24.0,00.0,34.5,27.4,17.6,0000.0,0002.50,0004.01,0002.24
2022-11-27 09:19:00,,0822.9,5.00,0.00,25.5,24.0,00.0,34.5,27.4,17.6,0000.0,0002.49,0003.42,0002.24
2022-11-27 09:20:00,,0822.9,4.99,0.00,25.5,24.0,00.0,34.5,27.4,17.7,0000.0,0002.49,0003.29,0002.25
2022-11-27 09:21:00,,0823.0,4.99,0.00,25.5,24.0,00.0,34.5,27.4,17.7,0000.0,0002.48,0003.26,0002.24
2022-11-27 09:22:00,,0823.0,4.99,0.00,25.5,24.0,00.0,34.5,27.3,17.7,0000.0,0002.48,0003.30,0002.25
2022-11-27 09:23:00,,0823.0,5.02,0.00,25.5,24.0,00.0,34.5,27.4,17.7,0000.0,0002.54,0003.42,0002.25
2022-11-27 09:24:00,,0822.9,5.00,0.00,25.5,24.0,00.0,34.5,27.4,17.7,0000.0,0002.56,0003.48,0002.27
2022-11-27 09:25:00,,0822.9,4.99,0.00,25.5,24.0,00.0,34.5,27.4,17.7,0000.0,0002.61,0003.58,0002.28
2022-11-27 09:26:00,,0822.9,5.00,0.00,25.5,24.0,00.0,34.5,27.4,17.7,0000.0,0002.65,0003.68,0002.29
2022-11-27 09:27:00,,0822.9,5.00,0.00,25.5,24.0,00.0,34.5,27.3,17.7,0000.0,0002.66,0003.67,0002.31
2022-11-27 09:28:00,,0822.8,5.00,0.00,25.5,24.0,00.0,34.5,27.3,17.7,0000.0,0002.66,0003.64,0002.33
2022-11-27 09:29:00,,0822.8,4.99,0.00,25.5,24.0,00.0,34.5,27.4,17.7,0000.0,0002.71,0003.72,0002.36
2022-11-27 09:30:00,,0822.8,5.00,0.00,25.5,24.0,00.0,34.5,27.4,17.7,0000.0,0002.73,0003.73,0002.39
2022-11-27 09:31:00,,0822.8,5.00,0.00,25.5,24.0,00.0,34.5,27.4,17.7,0000.0,0002.76,0003.77,0002.42
2022-11-27 09:32:00,,0822.8,5.02,0.00,25.5,24.0,00.0,34.5,27.3,17.7,0000.0,0002.80,0003.83,0002.44
2022-11-27 09:33:00,,0822.8,5.00,0.00,25.5,24.0,00.0,34.5,27.3,17.7,0000.0,0002.84,0003.88,0002.48
2022-11-27 09:34:00,,0822.8,5.00,0.00,25.5,24.0,00.0,34.4,27.4,17.7,0000.0,0002.83,0003.83,0002.52
2022-11-27 09:35:00,,0822.8,5.00,0.00,25.4,24.0,00.0,34.4,27.3,17.7,0000.0,0002.84,0004.13,0002.54
2022-11-27 09:36:00,,0822.8,5.00,0.00,25.4,24.0,00.0,34.4,27.3,17.7,0000.0,0002.84,0004.22,0002.55
2022-11-27 09:37:00,,0822.8,4.99,0.00,25.4,23.9,00.0,34.4,27.3,17.7,0000.0,0002.85,0004.22,0002.57
2022-11-27 09:38:00,,0822.8,5.00,0.00,25.4,24.0,00.0,34.4,27.4,17.7,0000.0,0002.89,0004.30,0002.58
2022-11-27 09:39:00,,0822.8,5.00,0.00,25.4,23.9,00.0,34.4,27.3,17.7,0000.0,0002.89,0004.28,0002.59
2022-11-27 09:40:00,,0822.8,5.00,0.00,25.4,24.0,00.0,34.4,27.3,17.6,0000.0,0002.89,0004.30,0002.59
2022-11-27 09:41:00,,0822.8,4.99,0.00,25.4,23.9,00.0,34.4,27.3,17.7,0000.0,0002.88,0004.40,0002.59
2022-11-27 09:42:00,,0822.8,4.99,0.00,25.4,23.9,00.0,34.4,27.4,17.6,0000.0,0002.88,0004.43,0002.59
2022-11-27 09:43:00,,0822.8,5.02,0.00,25.4,23.9,00.0,34.4,27.4,17.6,0000.0,0002.88,0004.44,0002.59
2022-11-27 09:44:00,,0822.8,4.99,0.00,25.4,23.9,00.0,34.4,27.3,17.6,0000.0,0002.85,0004.35,0002.59
2022-11-27 09:45:00,,0822.7,5.00,0.00,25.4,23.9,00.0,34.4,27.3,17.6,0000.0,0002.84,0004.29,0002.58
2022-11-27 09:46:00,,0822.8,5.00,0.00,25.4,23.9,00.0,34.4,27.3,17.6,0000.0,0002.84,0004.03,0002.58
2022-11-27 09:47:00,,0822.8,4.99,0.00,25.4,23.9,00.0,34.4,27.3,17.6,0000.0,0002.84,0003.95,0002.59
2022-11-27 09:48:00,,0822.8,5.00,0.00,25.4,23.9,00.0,34.4,27.3,17.6,0000.0,0002.84,0004.48,0002.61
2022-11-27 09:49:00,,0822.8,5.00,0.00,25.4,23.9,00.0,34.4,27.3,17.7,0000.0,0002.86,0005.39,0002.62
2022-11-27 09:50:00,,0822.8,5.00,0.00,25.4,23.9,00.0,34.4,27.3,17.7,0000.0,0002.89,0005.49,0002.62
2022-11-27 09:51:00,,0822.8,5.00,0.00,25.4,23.9,00.0,34.4,27.3,17.7,0000.0,0002.90,0005.65,0002.63
2022-11-27 09:52:00,,0822.8,5.00,0.00,25.4,23.9,00.0,34.4,27.3,17.7,0000.0,0002.89,0005.53,0002.62
2022-11-27 09:53:00,,0822.8,5.00,0.00,25.4,23.9,00.0,34.4,27.3,17.7,0000.0,0002.92,0005.60,0002.64
2022-11-27 09:54:00,,0822.8,5.00,0.00,25.4,23.9,00.0,34.4,27.3,17.7,0000.0,0002.95,0005.74,0002.64
2022-11-27 09:55:00,,0822.8,5.02,0.00,25.4,23.9,00.0,34.4,27.3,17.7,0000.0,0002.98,0005.83,0002.65
2022-11-27 09:56:00,,0822.8,5.00,0.00,25.4,23.9,00.0,34.3,27.3,17.7,0000.0,0003.01,0005.86,0002.65
2022-11-27 09:57:00,,0822.8,5.00,0.00,25.4,23.9,00.0,34.3,27.3,17.7,0000.0,0003.01,0005.89,0002.65
2022-11-27 09:58:00,,0822.8,5.00,0.00,25.4,23.9,00.0,34.3,27.3,17.7,0000.0,0003.06,0006.01,0002.66
2022-11-27 09:59:00,,0822.8,5.00,0.00,25.4,23.9,00.0,34.3,27.3,17.7,0000.0,0003.05,0005.66,0002.64
